QPF
0.00 0.00 0.00 0.00 0.00 0.00 0.00 0.00 0.00 0.00 0.00 0.00 0.00 0.00 0.00 0.00 0.00 0.00 0.00 0.00 0.00 0.00 0.00 0.00 0.00 0.01 0.09 0.27 0.24 0.13 0.04 0.01
0.00 0.00 0.00 0.00 0.00 0.00 0.00 0.00 0.00 0.00 0.00 0.00 0.00 0.00 0.00 0.00 0.00 0.00 0.00 0.00 0.00 0.00 0.00 0.00 0.00 0.01 0.07 0.22 0.29 0.39 0.18 0.05
0.00 0.00 0.00 0.00 0.00 0.00 0.00 0.00 0.00 0.00 0.00 0.00 0.00 0.00 0.00 0.00 0.00 0.00 0.00 0.00 0.00 0.00 0.00 0.00 0.00 0.00 0.01 0.32 0.62 0.62 0.26 0.10
0.00 0.00 0.00 0.00 0.00 0.00 0.00 0.00 0.00 0.00 0.00 0.00 0.00 0.00 0.00 0.00 0.00 0.00 0.00 0.00 0.00 0.00 0.00 0.00 0.00 0.00 0.00 0.11 0.60 0.78 0.81 0.58
0.00 0.00 0.00 0.00 0.00 0.00 0.00 0.00 0.00 0.00 0.00 0.00 0.00 0.00 0.00 0.00 0.00 0.00 0.00 0.00 0.00 0.00 0.00 0.00 0.00 0.00 0.01 0.03 0.10 0.38 0.56 0.55
0.00 0.00 0.00 0.00 0.00 0.00 0.00 0.00 0.00 0.00 0.00 0.00 0.00 0.00 0.00 0.00 0.00 0.00 0.00 0.00 0.00 0.00 0.00 0.00 0.00 0.00 0.00 0.00 0.03 0.28 0.45 0.43
0.00 0.00 0.00 0.00 0.00 0.00 0.00 0.00 0.00 0.00 0.00 0.00 0.00 0.01 0.01 0.00 0.00 0.00 0.00 0.00 0.00 0.00 0.00 0.00 0.00 0.00 0.00 0.00 0.00 0.08 0.42 0.55
0.00 0.00 0.00 0.00 0.00 0.00 0.00 0.00 0.00 0.00 0.00 0.00 0.00 0.01 0.01 0.01 0.01 0.01 0.00 0.00 0.00 0.00 0.00 0.01 0.00 0.00 0.00 0.00 0.00 0.00 0.13 0.37
0.00 0.00 0.00 0.00 0.00 0.00 0.00 0.00 0.00 0.00 0.00 0.00 0.00 0.01 0.01 0.01 0.01 0.01 0.01 0.01 0.00 0.00 0.00 0.00 0.00 0.00 0.00 0.00 0.00 0.00 0.00 0.06
0.00 0.00 0.00 0.00 0.00 0.00 0.00 0.00 0.00 0.00 0.00 0.00 0.01 0.01 0.01 0.01 0.01 0.00 0.00 0.01 0.01 0.00 0.01 0.01 0.01 0.00 0.00 0.00 0.00 0.00 0.00 0.02
0.00 0.00 0.00 0.00 0.00 0.00 0.00 0.00 0.00 0.00 0.00 0.00 0.01 0.00 0.01 0.01 0.01 0.00 0.01 0.02 0.02 0.02 0.04 0.04 0.02 0.00 0.00 0.00 0.00 0.00 0.00 0.00
0.00 0.00 0.00 0.00 0.00 0.00 0.00 0.00 0.00 0.00 0.00 0.00 0.00 0.01 0.01 0.01 0.02 0.02 0.06 0.07 0.10 0.03 0.05 0.08 0.04 0.01 0.00 0.00 0.00 0.00 0.00 0.00
0.00 0.00 0.00 0.00 0.00 0.00 0.00 0.00 0.00 0.00 0.00 0.00 0.00 0.01 0.01 0.02 0.05 0.05 0.05 0.12 0.04 0.03 0.06 0.06 0.03 0.00 0.00 0.00 0.01 0.00 0.00 0.00
0.00 0.00 0.00 0.00 0.00 0.00 0.00 0.00 0.00 0.00 0.00 0.00 0.00 0.00 0.01 0.05 0.08 0.10 0.15 0.15 0.09 0.07 0.07 0.05 0.04 0.02 0.01 0.01 0.01 0.02 0.01 0.00
0.00 0.00 0.00 0.00 0.00 0.00 0.00 0.00 0.00 0.00 0.00 0.00 0.00 0.00 0.01 0.04 0.06 0.14 0.23 0.32 0.22 0.23 0.19 0.17 0.11 0.10 0.07 0.05 0.04 0.06 0.06 0.04
0.00 0.00 0.00 0.00 0.00 0.00 0.00 0.00 0.00 0.00 0.00 0.00 0.00 0.00 0.00 0.01 0.02 0.08 0.19 0.39 0.46 0.47 0.40 0.20 0.10 0.14 0.18 0.14 0.25 0.18 0.14 0.14
0.00 0.00 0.00 0.00 0.00 0.00 0.00 0.00 0.00 0.00 0.00 0.00 0.00 0.00 0.00 0.00 0.00 0.02 0.06 0.11 0.13 0.24 0.40 0.28 0.31 0.17 0.19 0.31 0.40 0.47 0.40 0.24
0.00 0.00 0.00 0.00 0.00 0.00 0.00 0.00 0.00 0.00 0.00 0.00 0.00 0.00 0.00 0.00 0.00 0.00 0.01 0.02 0.04 0.08 0.15 0.13 0.09 0.03 0.03 0.11 0.19 0.30 0.41 0.37
0.00 0.00 0.00 0.00 0.00 0.00 0.00 0.00 0.00 0.00 0.00 0.00 0.00 0.00 0.00 0.00 0.00 0.00 0.00 0.00 0.00 0.02 0.05 0.06 0.03 0.00 0.00 0.00 0.01 0.01 0.02 0.03
MSLP
1024.67 1024.56 1024.34 1024.06 1023.70 1023.31 1022.80 1022.14 1021.50 1020.89 1020.01 1019.22 1018.45 1017.95 1017.51 1016.91 1016.11 1015.54 1015.06 1014.65 1014.27 1013.66 1012.64 1011.79 1011.24 1010.52 1009.85 1008.64 1008.77 1009.20 1008.91 1009.56
1024.68 1024.58 1024.34 1024.14 1023.87 1023.31 1022.63 1021.97 1021.40 1020.71 1019.95 1019.36 1018.53 1018.03 1017.38 1016.42 1015.63 1015.03 1014.46 1014.11 1013.80 1013.12 1012.19 1011.31 1010.68 1009.88 1009.24 1008.59 1007.71 1008.09 1008.10 1008.37
1024.67 1024.55 1024.42 1024.25 1023.78 1023.15 1022.49 1021.93 1021.45 1021.03 1020.73 1020.26 1019.44 1018.56 1017.53 1016.45 1015.56 1014.72 1014.06 1013.40 1012.97 1012.41 1011.61 1010.80 1010.04 1008.96 1008.67 1007.99 1007.13 1007.15 1007.57 1007.75
1025.02 1024.90 1024.81 1024.54 1023.87 1023.21 1022.62 1022.11 1021.63 1021.32 1020.81 1020.00 1019.15 1018.37 1017.29 1016.23 1015.26 1014.35 1013.68 1013.05 1012.30 1011.50 1011.01 1010.30 1009.39 1008.86 1008.10 1007.41 1006.63 1006.86 1007.54 1007.20
1025.50 1025.31 1024.96 1024.61 1024.07 1023.52 1022.94 1022.16 1021.55 1021.02 1020.66 1019.85 1019.19 1018.21 1016.98 1015.94 1014.83 1013.92 1013.12 1012.22 1011.41 1010.64 1009.84 1009.39 1009.03 1008.68 1007.59 1006.68 1006.10 1005.80 1006.10 1005.97
1025.89 1025.64 1025.34 1024.92 1024.25 1023.66 1022.91 1021.92 1021.60 1021.27 1020.68 1020.23 1019.33 1018.08 1016.95 1015.68 1014.56 1013.55 1012.47 1011.38 1010.55 1009.61 1009.00 1008.25 1008.08 1007.74 1006.95 1006.24 1005.39 1004.71 1005.12 1004.94
1026.22 1025.81 1025.50 1025.07 1024.55 1023.98 1022.63 1022.00 1021.80 1021.19 1020.94 1020.11 1018.98 1017.82 1016.83 1015.62 1014.53 1013.43 1012.17 1011.20 1010.07 1009.11 1008.24 1007.38 1006.91 1006.72 1005.78 1004.98 1004.46 1003.77 1003.75 1004.31
1026.39 1026.12 1025.59 1025.30 1024.74 1023.94 1022.80 1022.38 1021.69 1021.40 1020.87 1019.84 1018.88 1017.86 1016.85 1015.81 1014.81 1013.71 1012.50 1011.18 1009.81 1008.74 1007.93 1006.72 1005.89 1005.42 1004.76 1004.02 1003.62 1003.50 1002.81 1003.08
1026.74 1026.62 1026.16 1025.71 1025.18 1024.41 1023.47 1022.75 1021.97 1021.60 1020.77 1019.71 1018.75 1017.93 1016.97 1016.16 1015.32 1014.27 1012.96 1011.60 1010.21 1008.71 1007.28 1005.99 1005.01 1004.41 1003.92 1003.51 1002.89 1002.65 1002.29 1002.23
1027.03 1026.73 1026.22 1026.14 1025.74 1024.78 1023.89 1023.27 1022.79 1021.87 1021.04 1020.19 1019.18 1018.23 1017.31 1016.70 1015.70 1014.63 1013.38 1011.84 1010.27 1008.54 1006.98 1005.30 1003.80 1003.49 1003.51 1003.14 1002.34 1001.77 1001.75 1001.49
1026.99 1026.99 1026.68 1026.46 1026.17 1025.37 1024.62 1024.17 1023.44 1022.46 1021.76 1021.07 1020.00 1019.01 1018.10 1017.24 1016.06 1014.80 1013.52 1011.92 1010.55 1008.86 1007.30 1005.90 1004.88 1004.22 1003.87 1003.17 1002.33 1001.49 1001.47 1000.98
1027.25 1027.27 1026.95 1026.86 1026.28 1025.60 1025.28 1024.44 1023.80 1022.86 1022.42 1021.89 1020.94 1019.82 1018.84 1017.81 1016.79 1015.72 1014.36 1012.89 1011.29 1009.29 1008.22 1007.03 1005.99 1005.22 1004.31 1003.27 1002.40 1002.00 1001.89 1001.74
1027.49 1027.30 1027.27 1026.80 1026.29 1025.94 1025.67 1024.85 1024.19 1023.60 1023.12 1022.70 1021.76 1020.66 1019.61 1018.77 1017.97 1016.70 1015.06 1013.66 1011.72 1010.56 1009.44 1008.34 1007.52 1006.45 1006.01 1004.98 1004.20 1004.02 1003.83 1003.71
1027.47 1027.34 1027.31 1026.72 1026.62 1026.30 1025.98 1025.11 1024.55 1024.10 1023.53 1022.99 1022.39 1021.37 1020.32 1019.70 1018.94 1017.65 1016.23 1014.57 1012.70 1011.76 1011.01 1010.00 1009.20 1008.56 1007.74 1007.07 1006.60 1006.59 1006.48 1006.26
1027.21 1027.09 1027.26 1026.85 1026.65 1026.37 1026.05 1025.30 1024.72 1024.29 1023.75 1023.20 1022.80 1022.23 1021.50 1020.69 1019.83 1018.75 1017.31 1015.88 1014.62 1013.61 1012.95 1012.20 1011.30 1010.44 1009.62 1009.15 1008.76 1008.72 1008.71 1008.90
1026.79 1026.82 1027.07 1026.82 1026.68 1026.55 1026.23 1025.57 1024.97 1024.44 1023.84 1023.35 1023.04 1022.76 1022.26 1021.36 1020.41 1019.92 1018.58 1017.38 1016.47 1015.67 1014.80 1013.96 1013.39 1011.93 1011.82 1011.41 1011.01 1010.92 1010.63 1010.67
1026.36 1026.58 1026.91 1026.87 1026.84 1026.81 1026.49 1025.89 1025.44 1024.94 1024.24 1023.94 1023.45 1022.84 1022.20 1021.71 1021.25 1020.83 1019.90 1019.18 1018.30 1017.61 1016.91 1016.25 1014.52 1013.95 1013.86 1013.41 1012.70 1012.41 1012.66 1012.85
1026.29 1026.74 1027.12 1027.17 1027.26 1027.21 1026.86 1026.41 1026.02 1025.51 1025.10 1024.60 1024.22 1023.55 1022.76 1022.45 1021.97 1021.44 1020.86 1020.76 1020.31 1019.34 1018.26 1017.14 1016.41 1016.49 1015.66 1015.54 1014.88 1014.21 1013.94 1014.42
1026.26 1026.97 1027.48 1027.58 1027.63 1027.43 1027.25 1026.95 1026.55 1026.25 1025.88 1025.38 1025.00 1024.58 1023.82 1023.33 1022.91 1022.51 1022.37 1022.32 1021.77 1021.00 1020.27 1019.68 1018.84 1018.63 1018.53 1017.39 1016.36 1014.45 1016.29 1015.66
Thickness
5535 5534 5532 5531 5531 5530 5532 5535 5537 5539 5543 5546 5548 5549 5549 5551 5556 5558 5560 5564 5568 5572 5585 5600 5606 5615 5626 5642 5641 5646 5651 5653
5522 5520 5518 5517 5516 5518 5521 5523 5523 5525 5527 5527 5530 5530 5532 5536 5540 5544 5546 5549 5551 5558 5568 5580 5590 5601 5610 5623 5637 5641 5638 5646
5509 5507 5506 5504 5505 5507 5509 5509 5508 5507 5506 5505 5508 5511 5515 5520 5525 5529 5532 5537 5541 5547 5554 5564 5575 5586 5595 5606 5625 5632 5634 5635
5494 5493 5491 5490 5493 5494 5495 5496 5494 5491 5491 5492 5495 5498 5503 5508 5512 5518 5521 5524 5530 5534 5541 5549 5561 5566 5579 5589 5610 5609 5615 5614
5482 5480 5480 5479 5480 5481 5481 5484 5484 5482 5478 5481 5482 5486 5492 5496 5503 5507 5509 5513 5521 5524 5532 5540 5545 5549 5565 5576 5590 5604 5608 5612
5468 5467 5466 5468 5470 5471 5473 5477 5472 5467 5466 5466 5468 5474 5479 5486 5492 5497 5503 5507 5513 5519 5524 5530 5536 5540 5553 5563 5574 5595 5598 5612
5456 5457 5456 5457 5458 5459 5467 5467 5461 5457 5453 5455 5459 5464 5468 5473 5478 5482 5489 5494 5501 5507 5514 5522 5527 5533 5547 5558 5567 5584 5595 5598
5447 5446 5447 5445 5447 5451 5457 5455 5453 5447 5444 5447 5450 5454 5456 5459 5460 5464 5471 5480 5488 5495 5501 5511 5520 5530 5541 5552 5562 5569 5588 5597
5437 5433 5435 5435 5438 5441 5444 5443 5443 5438 5438 5441 5444 5445 5446 5447 5445 5447 5454 5462 5468 5477 5488 5500 5511 5522 5533 5542 5556 5568 5579 5589
5426 5424 5428 5426 5426 5430 5433 5432 5430 5429 5430 5431 5433 5436 5436 5432 5431 5433 5437 5443 5449 5460 5470 5487 5504 5512 5520 5530 5548 5563 5572 5583
5420 5416 5417 5417 5416 5418 5420 5418 5417 5418 5417 5416 5419 5420 5420 5417 5419 5420 5420 5423 5425 5429 5437 5458 5475 5489 5503 5517 5535 5552 5563 5577
5411 5408 5409 5407 5408 5410 5409 5410 5409 5409 5406 5403 5403 5405 5406 5407 5403 5403 5405 5409 5410 5414 5413 5428 5451 5469 5488 5507 5524 5540 5554 5565
5402 5402 5400 5400 5401 5401 5399 5401 5402 5400 5395 5392 5392 5392 5394 5392 5390 5390 5394 5398 5402 5400 5402 5414 5432 5454 5468 5486 5500 5513 5526 5533
5397 5396 5393 5393 5392 5391 5391 5395 5396 5394 5391 5387 5385 5385 5385 5382 5380 5382 5387 5391 5398 5396 5398 5409 5422 5436 5452 5468 5481 5490 5498 5506
5393 5391 5388 5387 5386 5385 5385 5389 5390 5389 5388 5385 5382 5378 5377 5375 5373 5373 5379 5386 5387 5387 5393 5401 5414 5427 5441 5453 5463 5470 5475 5478
5391 5387 5383 5382 5380 5379 5379 5381 5383 5384 5384 5383 5380 5376 5372 5372 5372 5369 5372 5375 5378 5381 5387 5392 5402 5421 5426 5435 5443 5448 5454 5456
5388 5384 5380 5375 5373 5370 5370 5373 5374 5375 5378 5376 5377 5377 5375 5371 5369 5368 5369 5368 5372 5374 5377 5384 5399 5408 5411 5418 5428 5434 5429 5428
5380 5373 5368 5365 5362 5360 5360 5362 5363 5365 5366 5367 5368 5370 5373 5369 5367 5364 5364 5361 5361 5364 5371 5379 5382 5384 5395 5400 5407 5413 5415 5410
5370 5361 5357 5354 5351 5350 5349 5350 5352 5352 5354 5356 5358 5359 5362 5363 5361 5360 5356 5352 5353 5354 5358 5362 5366 5369 5370 5382 5393 5408 5391 5397